{"data":{"norad_id":68578,"epoch":"2026-09-20T00:04:06.595104Z","epoch_age_seconds":109455,"freshness":"FRESH","line1":"1 68578U 26072F   26263.00285411 -.00000181  00000+0  52074-5 0  9994","line2":"2 68578  51.9003 136.3802 0000644 117.4969 242.6059 14.79932147 25167","mean_motion":14.79932147,"eccentricity":6.44e-5,"inclination_deg":51.9003,"raan_deg":136.3802,"arg_perigee_deg":117.4969,"mean_anomaly_deg":242.6059,"bstar":5.2074e-6,"rev_number":2516,"period_min":97.301758254191,"perigee_km":629.08702759518,"apogee_km":629.98961617664,"semimajor_km":7007.6753218859,"source":"CELESTRAK","updated_at":"2026-09-20T09:00:24.319324Z"}}